COSMOS 2251 DEB

Satellite information

Favourite Embed

Satellite Type and Status

DEBRISIN ORBIT

Key statistics

Satellite COSMOS 2251 DEB at a glance.

Uptime

11812

Days in orbit

Revolutions

≈ 14.7

Per day

Orbit

LEO

Low Earth Orbit

Inclination

74.1

Latest

Satellite identification and parameters

Extended collection of information and parameters for COSMOS 2251 DEB.

Object identification

Identified? True

Debris? True

Object name: COSMOS 2251 DEB

International designator: 1993-036BQP

Object number (NORAD): 37988

Object ID (CCSDS): 37988

Country: COMMONWEALTH OF INDEPENDENT STATES (CIS)

Current information (Y/N): Y

RCS size: SMALL

Orbital parameters

Period: 98.103 minutes

Inclination: 74.0609 deg

SMA: 7046.092 km

Apoapsis: 715.259 km

Periapsis: 620.656 km

RAAN: 131.9816 deg

Eccentricy: 0.00671315

Argument of periapsis: 186.6691 deg

Mean anomaly: 173.3594 deg

Mean motion: 14.67845252 rev/day

Mean motion (dot): 0.00008545 rev/day2

B* drag term: 0.0014496867 1/REarth

Two-line elements (TLE)

Creation date: Oct. 18, 2025, 2:17 a.m.

Reference frame: TEME

Reference center: EARTH

Epoch: Oct. 17, 2025, 7:55 p.m. UTC

TLE line 0: 0 COSMOS 2251 DEB

TLE line 1: 1 37988U 93036BQP 25290.83005752 .00008545 00000-0 14497-2 0 9993

TLE line 2: 2 37988 74.0609 131.9816 0067132 186.6691 173.3594 14.67845252225755

Live tracking on map

Real-time ground track for satellite COSMOS 2251 DEB.

In-orbit conjunctions

A list of the most updated potential collisions computed for object COSMOS 2251 DEB.

Target Orbit TCA Probability of collision Miss distance Type
SHIYAN 2 (SY-2) SSO 2024-11-20 03:38:35 0.0001271387 815.0 (m) PAYLOAD
CZ-6A DEB LEO 2024-10-01 11:03:03 0.000170902 103.0 (m) DEBRIS

Associated space launch

Military communications satellite. Destroyed in a collision with Iridium 33.

COSMOS 2251 DEB was lifted into orbit during the mission ‘Kosmos-3M | Strela-2M 51’, on board a Kosmos-3M space rocket.

The launch took place on June 16, 1993, 4:17 a.m. from 132/1 (132L).

For more information about the launch, click the button.

Launch to space Kosmos-3M | Strela-2M 51
Kosmos-3M | Strela-2M 51

Agency: N/A

Status: Launch Successful

Launch date: June 16, 1993, 4:17 a.m. UTC

Rocket: Kosmos-3M

Launch pad: 132/1 (132L)

Location: Plesetsk Cosmodrome, Russian Federation

...

Latest news about this satellite

There are no fresh news available about this satellite. Check back as we update our databases every day.


Newsletter sign-up

Weekly statistics, charts and insights to help you stay on top of the space industry.